Home   Weather   Frankfurt an der Oder   Past weeks

Flag for Germany Past Weather in Frankfurt an der Oder, Brandenburg, Germany — Yesterday and Last 2 Weeks

Now
33 °F

Drizzle. Low clouds.


Feels Like: 33 °F
Forecast: 25 / 33 °F
Wind: 2 mph from Southwest

Location: Gorzow Wlkp

Current Time: Jan 21, 2017 at 9:45:40 am

Latest Report: Jan 21, 2017 at 8:00 am


Visibility: 0 mi

Pressure: 30.49 "Hg

Humidity: 99%

Dew Point: 33 °F

Location of Frankfurt an der OderLocation

Past Weather in Frankfurt an der Oder — Graph

°F

Frankfurt an der Oder Temperature Yesterday

Maximum temperature yesterday: 34 °F (at 11:00 pm)
Minimum temperature yesterday: 27 °F (at 12:00 am)
Average temperature yesterday: 30 °F

High & Low Weather Summary for the Past Weeks

 TemperatureHumidityPressure
High38 °F (Jan 12, 12:00 pm)100% (Jan 20, 9:00 am)30.77 "Hg (Jan 20, 9:00 am)
Low13 °F (Jan 11, 7:00 am)58% (Jan 11, 12:00 pm)29.09 "Hg (Jan 13, 9:00 am)
Average27 °F91%30.18 "Hg
* Reported Jan 6 8:00 am — Jan 21 8:00 am, Frankfurt an der Oder, Weather by CustomWeather, © 2017

Note: Actual official high and low records may vary slightly from our data, if they occured in-between our weather recording intervals... More about our weather records

Advertising

Frankfurt an der Oder Weather History for the Previous 24 Hours

Scroll right to see more
 ConditionsComfort  
Time TempWeatherWind HumidityBarometerVisibility
8:00 am
Sat, Jan 21
33 °FDrizzle. Low clouds.2 mph99%30.49 "Hg0 mi
7:00 am33 °FFog.2 mph99%30.48 "Hg1 mi
6:00 am33 °FFog.1 mph99%30.47 "Hg1 mi
5:00 am33 °FFog.2 mph99%30.48 "Hg1 mi
4:00 am33 °FFog.2 mph99%30.48 "Hg1 mi
3:00 am33 °FFog.2 mph99%30.48 "Hg1 mi
2:00 am33 °FFog.2 mph99%30.49 "Hg1 mi
1:00 am33 °FFog.2 mph99%30.50 "Hg0 mi
12:00 am33 °FFog.2 mph99%30.50 "Hg1 mi
11:00 pm
Fri, Jan 20
34 °FOvercast.2 mph99%30.51 "Hg1 mi
10:00 pm33 °FDrizzle. Low clouds.1 mph99%30.52 "Hg0 mi
9:00 pm33 °FDrizzle. Low clouds.2 mph99%30.51 "Hg1 mi
8:00 pm33 °FFog.2 mph100%30.51 "Hg1 mi
7:00 pm32 °FFog.2 mph99%30.52 "Hg0 mi
6:00 pm32 °FFog.1 mph99%30.51 "Hg0 mi
5:00 pm32 °FFog.2 mph99%30.52 "Hg0 mi
4:00 pm32 °FFog.3 mph99%30.52 "Hg1 mi
3:00 pm32 °FDrizzle. Low clouds.3 mph100%30.52 "Hg1 mi
2:00 pm31 °FDrizzle. Low clouds.2 mph99%30.53 "Hg1 mi
1:00 pm31 °FFog.2 mph99%30.54 "Hg1 mi
12:00 pm31 °FLight freezing rain. Low clouds.2 mph100%30.55 "Hg1 mi
11:00 am30 °FFog.2 mph99%30.56 "Hg1 mi
10:00 am29 °FLight freezing rain. Low clouds.2 mph99%30.56 "Hg1 mi
9:00 am29 °FFog.3 mph100%30.56 "Hg1 mi
Weather by CustomWeather, © 2017

See weather overviewHow to use our weather pages